INTELSAT 37E (IS-37E) (42950 NORAD) Tracking and Keplerian Element Data

This shows tracking and keplerian element data for the satellite.

Feedback or suggestion? Click here.




ElementValue
Catalog42950
NameINTELSAT 37E (IS-37E)
Epoch Orbit790
Epoch Day316.8292533
Epoch Year2019
RAAN273.0704
Inclination0.0122
Eccentricity0.0003198
Argument of Perigee318.4328
Mean Anonmoly100.7202
Mean Motion1.00271328
Decay Rate-1.26E-06
L11 42950U 17059A 19316.82925330 -.00000126 00000-0 00000-0 0 9994
L22 42950 0.0122 273.0704 0003198 318.4328 100.7202 1.00271328 7902

Live tracking and technical data element details for INTELSAT 37E (IS-37E) (NORAD 42950). INTELSAT 37E (IS-37E) can be tracked NOW for your location showing map with azimuth and elevation plus other details from your city location.

Track the satellite on the map from your city or location and see movement details for azimuth, elevation, latitude, longitude, range, height, and movement on the map or in text.







IsCatalogInMostPopularTable: catalog: 42950, numindb: 599
Update: records affected: 1



GetName: 42950 INTELSAT 37E (IS-37E)

Hit Count: updated at: Wed, 13 Nov 2019 17:13:02 GMT